Climatologie pour Saint-Brevin les Pins
Jour • Résumé pour juin 13, 2017 Système :  Métrique    Anglais   Mixte
« - 1 jour
+ 1 jour »
Jour Semaine Mois Année Personnalisé
  Maximum : Minimum : Moyenne :
Température sous abri : -17.8 °C -11.2 °C -7.3 °C
Point de rosée : -17.8 °C -12.4 °C -10.8 °C
Humidité : Humidity % 48 % 69 %
Vitesse du vent : 0 km/h 0 km/h 10.9 km/h
Rafale : 0 km/h - -
Direction :- - East
Pression : 0 hPa 34361.1 hPa -
Précipitations : 0 mm    
Historical Graphs
 
 
Tableau de données pour juin 13, 2017
Heure Tempé Pt rosée Pression Vent Vitesse Rafale Humidité Taux pluie (/hr) Soleil
-17.8 °C -17.8 °C 0 hPa Calm     Humidity % 0 mm SolarRadiationWatts/m^2 W/m2 Conditions
00:00 -9.3 °C -10.9 °C 34533.8 hPa NNE 12.9 km/h 28.5 km/h 83 % 0 mm 0 W/m2
00:10 -9.4 °C -11 °C 34533.8 hPa NE 10.3 km/h 25.9 km/h 83 % 0 mm 0 W/m2
00:15 -9.4 °C -11.1 °C 34533.8 hPa NE 7.7 km/h 25.9 km/h 82 % 0 mm 0 W/m2
00:20 -9.6 °C -11.1 °C 34533.8 hPa ENE 20.8 km/h 23.3 km/h 83 % 0 mm 0 W/m2
00:25 -9.6 °C -11.2 °C 34533.8 hPa NNE 12.9 km/h 23.3 km/h 83 % 0 mm 0 W/m2
00:30 -9.6 °C -11.2 °C 34533.8 hPa NNE 2.6 km/h 28.5 km/h 83 % 0 mm 0 W/m2
00:35 -9.7 °C -11.3 °C 34533.8 hPa NE 10.3 km/h 28.5 km/h 83 % 0 mm 0 W/m2
00:40 -9.7 °C -11.3 °C 34533.8 hPa NE 15.6 km/h 28.5 km/h 83 % 0 mm 0 W/m2
00:45 -9.8 °C -11.3 °C 34533.8 hPa NE 7.7 km/h 20.8 km/h 83 % 0 mm 0 W/m2
00:50 -9.8 °C -11.3 °C 34533.8 hPa NE 2.6 km/h 20.8 km/h 84 % 0 mm 0 W/m2
00:55 -9.8 °C -11.4 °C 34533.8 hPa NE 2.6 km/h 31.1 km/h 83 % 0 mm 0 W/m2
01:00 -9.8 °C -11.4 °C 34533.8 hPa ENE 2.6 km/h 31.1 km/h 83 % 0 mm 0 W/m2
01:05 -9.9 °C -11.4 °C 34533.8 hPa NNW 10.3 km/h 23.3 km/h 84 % 0 mm 0 W/m2
01:10 -9.9 °C -11.4 °C 34533.8 hPa NE 18.2 km/h 20.8 km/h 84 % 0 mm 0 W/m2
01:15 -9.9 °C -11.4 °C 34520.3 hPa NE 15.6 km/h 33.6 km/h 84 % 0 mm 0 W/m2
01:20 -10.1 °C -11.6 °C 34520.3 hPa North 5.1 km/h 33.6 km/h 84 % 0 mm 0 W/m2
01:25 -10.1 °C -11.6 °C 34520.3 hPa NNE 7.7 km/h 18.2 km/h 84 % 0 mm 0 W/m2
01:30 -10.1 °C -11.6 °C 34520.3 hPa ENE 5.1 km/h 18.2 km/h 84 % 0 mm 0 W/m2
01:35 -10.2 °C -11.6 °C 34520.3 hPa NNE 5.1 km/h 20.8 km/h 84 % 0 mm 0 W/m2
01:45 -10.3 °C -11.7 °C 34520.3 hPa North 5.1 km/h 25.9 km/h 85 % 0 mm 0 W/m2
01:50 -10.3 °C -11.7 °C 34520.3 hPa North 12.9 km/h 31.1 km/h 85 % 0 mm 0 W/m2
01:55 -10.3 °C -11.7 °C 34520.3 hPa NE 12.9 km/h 31.1 km/h 85 % 0 mm 0 W/m2
02:00 -10.3 °C -11.8 °C 34520.3 hPa NE 15.6 km/h 23.3 km/h 84 % 0 mm 0 W/m2
02:05 -10.4 °C -11.8 °C 34520.3 hPa NE 2.6 km/h 28.5 km/h 84 % 0 mm 0 W/m2
02:10 -10.4 °C -11.9 °C 34520.3 hPa ENE 12.9 km/h 28.5 km/h 84 % 0 mm 0 W/m2
02:15 -10.4 °C -11.9 °C 34510.1 hPa NNE 10.3 km/h 28.5 km/h 84 % 0 mm 0 W/m2
02:20 -10.5 °C -11.9 °C 34520.3 hPa North 2.6 km/h 28.5 km/h 84 % 0 mm 0 W/m2
02:25 -10.5 °C -12 °C 34520.3 hPa NE 5.1 km/h 33.6 km/h 84 % 0 mm 0 W/m2
02:35 -10.6 °C -12.1 °C 34520.3 hPa NE 2.6 km/h 28.5 km/h 84 % 0 mm 0 W/m2
02:40 -10.6 °C -12 °C 34520.3 hPa NE 2.6 km/h 23.3 km/h 85 % 0 mm 0 W/m2
02:45 -10.7 °C -12.1 °C 34520.3 hPa NNE 20.8 km/h 23.3 km/h 84 % 0 mm 0 W/m2
02:50 -10.7 °C -12.1 °C 34520.3 hPa North 2.6 km/h 23.3 km/h 85 % 0 mm 0 W/m2
02:55 -10.7 °C -12.1 °C 34520.3 hPa ENE 12.9 km/h 28.5 km/h 84 % 0 mm 0 W/m2
03:00 -10.7 °C -12.1 °C 34510.1 hPa NE 7.7 km/h 28.5 km/h 84 % 0 mm 0 W/m2
03:05 -10.7 °C -12.1 °C 34510.1 hPa NE 5.1 km/h 25.9 km/h 84 % 0 mm 0 W/m2
03:15 -10.8 °C -12.2 °C 34510.1 hPa ENE 2.6 km/h 25.9 km/h 84 % 0 mm 0 W/m2
03:20 -10.8 °C -12.2 °C 34510.1 hPa NE 5.1 km/h 23.3 km/h 85 % 0 mm 0 W/m2
03:25 -10.9 °C -12.2 °C 34510.1 hPa ENE 15.6 km/h 20.8 km/h 85 % 0 mm 0 W/m2
03:30 -10.9 °C -12.3 °C 34510.1 hPa East 7.7 km/h 23.3 km/h 85 % 0 mm 0 W/m2
03:35 -10.9 °C -12.3 °C 34510.1 hPa NE 18.2 km/h 25.9 km/h 84 % 0 mm 0 W/m2
03:40 -10.8 °C -12.3 °C 34510.1 hPa East 12.9 km/h 25.9 km/h 84 % 0 mm 0 W/m2
03:45 -10.9 °C -12.3 °C 34510.1 hPa ENE 7.7 km/h 31.1 km/h 84 % 0 mm 0 W/m2
03:50 -10.9 °C -12.4 °C 34510.1 hPa East 12.9 km/h 31.1 km/h 84 % 0 mm 0 W/m2
03:55 -10.9 °C -12.3 °C 34510.1 hPa ENE 5.1 km/h 28.5 km/h 84 % 0 mm 0 W/m2
04:00 -10.9 °C -12.3 °C 34496.6 hPa ENE 7.7 km/h 28.5 km/h 84 % 0 mm 0 W/m2
04:05 -10.9 °C -12.4 °C 34496.6 hPa East 23.3 km/h 33.6 km/h 84 % 0 mm 0 W/m2
04:10 -10.9 °C -12.3 °C 34496.6 hPa NE 10.3 km/h 33.6 km/h 84 % 0 mm 0 W/m2
04:15 -10.9 °C -12.3 °C 34496.6 hPa East 20.8 km/h 38.8 km/h 84 % 0 mm 0 W/m2
04:20 -10.9 °C -12.3 °C 34486.4 hPa ENE 20.8 km/h 38.8 km/h 84 % 0 mm 0 W/m2
04:25 -10.9 °C -12.3 °C 34496.6 hPa NE 12.9 km/h 36.2 km/h 84 % 0 mm 0 W/m2
04:30 -10.9 °C -12.3 °C 34496.6 hPa ENE 12.9 km/h 36.2 km/h 84 % 0 mm 0 W/m2
04:35 -10.9 °C -12.3 °C 34486.4 hPa East 12.9 km/h 31.1 km/h 84 % 0 mm 0 W/m2
04:40 -10.9 °C -12.3 °C 34496.6 hPa ENE 10.3 km/h 28.5 km/h 84 % 0 mm 0 W/m2
04:45 -10.9 °C -12.3 °C 34486.4 hPa NE 10.3 km/h 38.8 km/h 84 % 0 mm 0 W/m2
04:50 -10.9 °C -12.3 °C 34496.6 hPa NE 5.1 km/h 38.8 km/h 84 % 0 mm 0 W/m2
04:55 -10.9 °C -12.3 °C 34486.4 hPa NE 5.1 km/h 28.5 km/h 85 % 0 mm 0 W/m2
05:00 -10.9 °C -12.3 °C 34486.4 hPa NE 7.7 km/h 25.9 km/h 85 % 0 mm 0 W/m2
05:05 -10.9 °C -12.3 °C 34486.4 hPa NE 7.7 km/h 28.5 km/h 85 % 0 mm 0 W/m2
05:10 -10.9 °C -12.3 °C 34486.4 hPa ENE 10.3 km/h 31.1 km/h 85 % 0 mm 0 W/m2
05:20 -10.9 °C -12.3 °C 34486.4 hPa NE 18.2 km/h 25.9 km/h 85 % 0 mm 0 W/m2
05:25 -10.9 °C -12.3 °C 34486.4 hPa ENE 7.7 km/h 25.9 km/h 85 % 0 mm 0 W/m2
05:30 -11 °C -12.4 °C 34486.4 hPa ENE 7.7 km/h 20.8 km/h 85 % 0 mm 0 W/m2
05:35 -11 °C -12.3 °C 34486.4 hPa NNE 5.1 km/h 20.8 km/h 86 % 0 mm 0 W/m2
05:45 -11.1 °C -12.4 °C 34486.4 hPa ENE 20.8 km/h 23.3 km/h 86 % 0 mm 0 W/m2
05:50 -11.1 °C -12.4 °C 34486.4 hPa Calm   28.5 km/h 86 % 0 mm 0 W/m2
05:55 -11.2 °C -12.3 °C 34486.4 hPa ENE 10.3 km/h 28.5 km/h 87 % 0 mm 0 W/m2
06:00 -11.1 °C -12.3 °C 34486.4 hPa ENE 7.7 km/h 31.1 km/h 87 % 0 mm 0 W/m2
06:05 -11.1 °C -12.3 °C 34486.4 hPa NE 25.9 km/h 31.1 km/h 86 % 0 mm 0 W/m2
06:10 -11 °C -12.3 °C 34486.4 hPa ENE 5.1 km/h 28.5 km/h 86 % 0 mm 0 W/m2
06:15 -11 °C -12.3 °C 34486.4 hPa NE 15.6 km/h 28.5 km/h 86 % 0 mm 0 W/m2
06:20 -11 °C -12.3 °C 34486.4 hPa NNE 7.7 km/h 23.3 km/h 86 % 0 mm 7 W/m2
06:25 -11 °C -12.2 °C 34486.4 hPa ENE 5.1 km/h 23.3 km/h 87 % 0 mm 9 W/m2
06:30 -11 °C -12.2 °C 34486.4 hPa Calm   20.8 km/h 87 % 0 mm 11 W/m2
06:35 -11 °C -12.2 °C 34496.6 hPa NE 12.9 km/h 20.8 km/h 87 % 0 mm 14 W/m2
06:40 -10.9 °C -12.1 °C 34496.6 hPa ENE 2.6 km/h 31.1 km/h 87 % 0 mm 21 W/m2
06:45 -10.9 °C -12.1 °C 34496.6 hPa Calm   31.1 km/h 87 % 0 mm 30 W/m2
06:50 -10.9 °C -12.1 °C 34496.6 hPa Calm   23.3 km/h 87 % 0 mm 35 W/m2
06:55 -10.9 °C -12.1 °C 34496.6 hPa NE 7.7 km/h 28.5 km/h 87 % 0 mm 40 W/m2
07:00 -10.8 °C -12 °C 34496.6 hPa ENE 18.2 km/h 28.5 km/h 87 % 0 mm 46 W/m2
07:05 -10.8 °C -11.9 °C 34496.6 hPa Calm   23.3 km/h 87 % 0 mm 56 W/m2
07:10 -10.7 °C -11.9 °C 34496.6 hPa East 2.6 km/h 23.3 km/h 87 % 0 mm 67 W/m2
07:15 -10.7 °C -11.8 °C 34496.6 hPa North 7.7 km/h 23.3 km/h 87 % 0 mm 69 W/m2
07:20 -10.6 °C -11.8 °C 34496.6 hPa NE 12.9 km/h 23.3 km/h 87 % 0 mm 72 W/m2
07:25 -10.5 °C -11.8 °C 34496.6 hPa NNE 5.1 km/h 23.3 km/h 86 % 0 mm 74 W/m2
07:30 -10.4 °C -11.7 °C 34510.1 hPa NNE 18.2 km/h 31.1 km/h 86 % 0 mm 84 W/m2
07:35 -10.4 °C -11.7 °C 34496.6 hPa NE 12.9 km/h 33.6 km/h 85 % 0 mm 95 W/m2
07:40 -10.3 °C -11.7 °C 34496.6 hPa ENE 7.7 km/h 33.6 km/h 85 % 0 mm 86 W/m2
07:45 -10.3 °C -11.7 °C 34496.6 hPa North 5.1 km/h 33.6 km/h 85 % 0 mm 91 W/m2
07:50 -10.3 °C -11.8 °C 34496.6 hPa NE 12.9 km/h 33.6 km/h 84 % 0 mm 98 W/m2
07:55 -10.3 °C -11.7 °C 34496.6 hPa NE 5.1 km/h 33.6 km/h 85 % 0 mm 153 W/m2
08:00 -10.2 °C -11.7 °C 34496.6 hPa ENE 10.3 km/h 41.4 km/h 84 % 0 mm 209 W/m2
08:05 -10.2 °C -11.7 °C 34486.4 hPa NE 12.9 km/h 41.4 km/h 84 % 0 mm 200 W/m2
08:10 -10.2 °C -11.6 °C 34486.4 hPa ENE 7.7 km/h 33.6 km/h 84 % 0 mm 169 W/m2
08:15 -10.1 °C -11.6 °C 34486.4 hPa ENE 28.5 km/h 31.1 km/h 84 % 0 mm 253 W/m2
08:20 -9.9 °C -11.4 °C 34486.4 hPa ESE 28.5 km/h 31.1 km/h 84 % 0 mm 265 W/m2
08:25 -9.8 °C -11.4 °C 34486.4 hPa SE 20.8 km/h 33.6 km/h 82 % 0 mm 281 W/m2
08:30 -9.6 °C -11.3 °C 34486.4 hPa East 20.8 km/h 33.6 km/h 82 % 0 mm 294 W/m2
08:35 -9.6 °C -11.4 °C 34486.4 hPa NE 18.2 km/h 33.6 km/h 81 % 0 mm 309 W/m2
08:40 -9.5 °C -11.4 °C 34486.4 hPa ENE 10.3 km/h 36.2 km/h 80 % 0 mm 318 W/m2
08:45 -9.3 °C -11.2 °C 34486.4 hPa NE 7.7 km/h 36.2 km/h 80 % 0 mm 343 W/m2
08:50 -9.2 °C -11.3 °C 34486.4 hPa East 18.2 km/h 33.6 km/h 78 % 0 mm 350 W/m2
08:55 -9.1 °C -11.2 °C 34486.4 hPa NE 23.3 km/h 44.1 km/h 78 % 0 mm 369 W/m2
09:00 -8.9 °C -11.1 °C 34476.3 hPa East 23.3 km/h 44.1 km/h 78 % 0 mm 385 W/m2
09:05 -8.8 °C -11.2 °C 34486.4 hPa NE 15.6 km/h 33.6 km/h 76 % 0 mm 392 W/m2
09:10 -8.7 °C -10.9 °C 34486.4 hPa East 25.9 km/h 36.2 km/h 77 % 0 mm 415 W/m2
09:20 -8.5 °C -11.1 °C 34476.3 hPa ENE 18.2 km/h 36.2 km/h 74 % 0 mm 459 W/m2
09:25 -8.4 °C -11 °C 34486.4 hPa East 18.2 km/h 41.4 km/h 74 % 0 mm 483 W/m2
09:30 -8.3 °C -10.9 °C 34476.3 hPa NE 15.6 km/h 41.4 km/h 74 % 0 mm 533 W/m2
09:35 -8.2 °C -10.9 °C 34476.3 hPa ENE 20.8 km/h 36.2 km/h 73 % 0 mm 534 W/m2
09:40 -7.9 °C -10.7 °C 34476.3 hPa ESE 15.6 km/h 33.6 km/h 73 % 0 mm 585 W/m2
09:45 -7.8 °C -10.6 °C 34476.3 hPa East 18.2 km/h 33.6 km/h 73 % 0 mm 543 W/m2
09:50 -7.6 °C -10.5 °C 34476.3 hPa NE 7.7 km/h 33.6 km/h 72 % 0 mm 506 W/m2
09:55 -7.6 °C -10.4 °C 34476.3 hPa ENE 18.2 km/h 33.6 km/h 72 % 0 mm 501 W/m2
10:00 -7.7 °C -10.7 °C 34476.3 hPa NE 10.3 km/h 44.1 km/h 71 % 0 mm 404 W/m2
10:05 -7.7 °C -10.6 °C 34476.3 hPa ESE 12.9 km/h 44.1 km/h 72 % 0 mm 432 W/m2
10:10 -7.7 °C -10.6 °C 34462.7 hPa ESE 23.3 km/h 38.8 km/h 72 % 0 mm 353 W/m2
10:15 -7.7 °C -10.7 °C 34462.7 hPa East 25.9 km/h 38.8 km/h 71 % 0 mm 441 W/m2
10:20 -7.6 °C -10.6 °C 34462.7 hPa ENE 20.8 km/h 33.6 km/h 71 % 0 mm 420 W/m2
10:25 -7.5 °C -10.6 °C 34462.7 hPa ESE 7.7 km/h 36.2 km/h 70 % 0 mm 448 W/m2
10:30 -7.3 °C -10.3 °C 34462.7 hPa ESE 10.3 km/h 36.2 km/h 71 % 0 mm 475 W/m2
10:35 -7.3 °C -10.4 °C 34462.7 hPa Calm   28.5 km/h 70 % 0 mm 450 W/m2
10:40 -7.2 °C -10.3 °C 34462.7 hPa ENE 18.2 km/h 28.5 km/h 70 % 0 mm 555 W/m2
10:45 -7.1 °C -10.4 °C 34462.7 hPa ESE 25.9 km/h 33.6 km/h 68 % 0 mm 608 W/m2
10:50 -6.9 °C -10.3 °C 34452.6 hPa East 7.7 km/h 33.6 km/h 68 % 0 mm 677 W/m2
10:55 -6.7 °C -10.2 °C 34452.6 hPa ENE 31.1 km/h 38.8 km/h 67 % 0 mm 684 W/m2
11:00 -6.6 °C -10 °C 34452.6 hPa SE 25.9 km/h 38.8 km/h 68 % 0 mm 715 W/m2
11:05 -6.5 °C -9.9 °C 34452.6 hPa East 20.8 km/h 36.2 km/h 68 % 0 mm 712 W/m2
11:10 -6.5 °C -10.3 °C 34452.6 hPa NNE 20.8 km/h 33.6 km/h 65 % 0 mm 257 W/m2
11:15 -6.6 °C -9.9 °C 34452.6 hPa SE 18.2 km/h 33.6 km/h 68 % 0 mm 691 W/m2
11:20 -6.2 °C -9.7 °C 34452.6 hPa East 12.9 km/h 31.1 km/h 67 % 0 mm 712 W/m2
11:25 -6.1 °C -10.1 °C 34452.6 hPa East 7.7 km/h 25.9 km/h 63 % 0 mm 756 W/m2
11:30 -5.9 °C -9.5 °C 34452.6 hPa East 23.3 km/h 36.2 km/h 67 % 0 mm 761 W/m2
11:35 -5.9 °C -9.8 °C 34452.6 hPa ESE 25.9 km/h 36.2 km/h 64 % 0 mm 770 W/m2
11:40 -5.8 °C -9.9 °C 34442.4 hPa East 7.7 km/h 25.9 km/h 63 % 0 mm 780 W/m2
11:45 -5.6 °C -9.7 °C 34442.4 hPa East 25.9 km/h 36.2 km/h 63 % 0 mm 788 W/m2
11:50 -5.7 °C -9.9 °C 34442.4 hPa ENE 7.7 km/h 36.2 km/h 62 % 0 mm 800 W/m2
11:55 -5.7 °C -9.8 °C 34442.4 hPa East 18.2 km/h 36.2 km/h 63 % 0 mm 798 W/m2
12:00 -5.6 °C -9.7 °C 34452.6 hPa ENE 28.5 km/h 36.2 km/h 63 % 0 mm 812 W/m2
12:05 -5.5 °C -9.9 °C 34452.6 hPa ENE 31.1 km/h 36.2 km/h 61 % 0 mm 821 W/m2
12:10 -5.4 °C -10.1 °C 34452.6 hPa SE 18.2 km/h 36.2 km/h 59 % 0 mm 802 W/m2
12:15 -5.3 °C -10.1 °C 34452.6 hPa ESE 20.8 km/h 36.2 km/h 58 % 0 mm 798 W/m2
12:20 -5.2 °C -10.1 °C 34452.6 hPa East 10.3 km/h 36.2 km/h 57 % 0 mm 819 W/m2
12:25 -5.2 °C -9.9 °C 34452.6 hPa East 12.9 km/h 31.1 km/h 59 % 0 mm 796 W/m2
12:30 -5.2 °C -10 °C 34452.6 hPa ENE 20.8 km/h 38.8 km/h 58 % 0 mm 800 W/m2
12:35 -5.2 °C -9.9 °C 34442.4 hPa ENE 5.1 km/h 38.8 km/h 59 % 0 mm 874 W/m2
12:40 -4.9 °C -9.9 °C 34442.4 hPa SE 28.5 km/h 33.6 km/h 57 % 0 mm 863 W/m2
12:45 -5.1 °C -10.1 °C 34452.6 hPa East 23.3 km/h 38.8 km/h 57 % 0 mm 846 W/m2
12:50 -5.2 °C -10.2 °C 34452.6 hPa East 2.6 km/h 41.4 km/h 57 % 0 mm 749 W/m2
12:55 -5.4 °C -10.2 °C 34452.6 hPa SE 10.3 km/h 41.4 km/h 58 % 0 mm 522 W/m2
13:00 -5.3 °C -9.8 °C 34452.6 hPa NE 12.9 km/h 36.2 km/h 60 % 0 mm 722 W/m2
13:05 -5.1 °C -9.7 °C 34452.6 hPa ESE 5.1 km/h 36.2 km/h 59 % 0 mm 803 W/m2
13:10 -4.9 °C -9.4 °C 34452.6 hPa NNE 7.7 km/h 20.8 km/h 60 % 0 mm 740 W/m2
13:20 -4.9 °C -9.3 °C 34452.6 hPa SE 25.9 km/h 28.5 km/h 61 % 0 mm 638 W/m2
13:25 -4.8 °C -10 °C 34452.6 hPa ESE 12.9 km/h 25.9 km/h 56 % 0 mm 703 W/m2
13:30 -4.8 °C -10.1 °C 34452.6 hPa East 28.5 km/h 31.1 km/h 55 % 0 mm 784 W/m2
13:35 -4.8 °C -9.9 °C 34452.6 hPa ENE 7.7 km/h 31.1 km/h 56 % 0 mm 686 W/m2
13:40 -4.9 °C -10.1 °C 34452.6 hPa East 18.2 km/h 31.1 km/h 56 % 0 mm 649 W/m2
13:45 -4.9 °C -9.8 °C 34452.6 hPa East 7.7 km/h 31.1 km/h 58 % 0 mm 552 W/m2
13:50 -5 °C -9.7 °C 34452.6 hPa East 10.3 km/h 31.1 km/h 59 % 0 mm 489 W/m2
13:55 -5.1 °C -10 °C 34452.6 hPa NNE 7.7 km/h 33.6 km/h 57 % 0 mm 464 W/m2
14:00 -5.2 °C -10.1 °C 34452.6 hPa Calm   33.6 km/h 58 % 0 mm 438 W/m2
14:05 -5.3 °C -10.1 °C 34452.6 hPa ENE 10.3 km/h 33.6 km/h 58 % 0 mm 404 W/m2
14:10 -5.3 °C -9.8 °C 34452.6 hPa ENE 7.7 km/h 33.6 km/h 60 % 0 mm 378 W/m2
14:15 -5.2 °C -9.9 °C 34452.6 hPa ESE 12.9 km/h 23.3 km/h 59 % 0 mm 357 W/m2
14:20 -5.3 °C -10.2 °C 34452.6 hPa Calm   20.8 km/h 58 % 0 mm 329 W/m2
14:25 -5.3 °C -10 °C 34452.6 hPa East 7.7 km/h 20.8 km/h 59 % 0 mm 315 W/m2
14:30 -5.4 °C -10.3 °C 34442.4 hPa ESE 10.3 km/h 23.3 km/h 57 % 0 mm 313 W/m2
14:35 -5.4 °C -10.1 °C 34442.4 hPa ENE 5.1 km/h 25.9 km/h 59 % 0 mm 323 W/m2
14:40 -5.4 °C -9.9 °C 34442.4 hPa Calm   25.9 km/h 60 % 0 mm 350 W/m2
14:45 -5.4 °C -9.9 °C 34428.8 hPa Calm   23.3 km/h 60 % 0 mm 425 W/m2
14:50 -5.1 °C -9.9 °C 34428.8 hPa ESE 2.6 km/h 23.3 km/h 58 % 0 mm 636 W/m2
14:55 -4.9 °C -10.1 °C 34442.4 hPa NE 15.6 km/h 28.5 km/h 56 % 0 mm 496 W/m2
15:00 -5 °C -9.8 °C 34442.4 hPa ENE 10.3 km/h 28.5 km/h 58 % 0 mm 552 W/m2
15:05 -5 °C -9.8 °C 34442.4 hPa NE 7.7 km/h 23.3 km/h 58 % 0 mm 645 W/m2
15:10 -4.9 °C -9.9 °C 34442.4 hPa ESE 7.7 km/h 28.5 km/h 57 % 0 mm 592 W/m2
15:15 -4.8 °C -9.6 °C 34428.8 hPa NNE 5.1 km/h 28.5 km/h 58 % 0 mm 573 W/m2
15:20 -4.7 °C -9.4 °C 34428.8 hPa ESE 25.9 km/h 25.9 km/h 59 % 0 mm 701 W/m2
15:25 -4.5 °C -9.7 °C 34428.8 hPa ESE 7.7 km/h 25.9 km/h 56 % 0 mm 693 W/m2
15:30 -4.6 °C -10.2 °C 34428.8 hPa ESE 23.3 km/h 25.9 km/h 53 % 0 mm 605 W/m2
15:35 -4.6 °C -9.9 °C 34428.8 hPa East 20.8 km/h 36.2 km/h 55 % 0 mm 592 W/m2
15:40 -4.7 °C -9.5 °C 34428.8 hPa East 7.7 km/h 36.2 km/h 58 % 0 mm 545 W/m2
15:45 -4.3 °C -9.7 °C 34428.8 hPa ESE 18.2 km/h 20.8 km/h 55 % 0 mm 643 W/m2
15:50 -4.5 °C -10 °C 34428.8 hPa NE 12.9 km/h 20.8 km/h 54 % 0 mm 594 W/m2
15:55 -4.2 °C -9.7 °C 34418.7 hPa ENE 15.6 km/h 23.3 km/h 54 % 0 mm 853 W/m2
16:00 -4.1 °C -10 °C 34418.7 hPa ESE 5.1 km/h 23.3 km/h 52 % 0 mm 810 W/m2
16:05 -4 °C -9.8 °C 34428.8 hPa East 18.2 km/h 28.5 km/h 52 % 0 mm 628 W/m2
16:10 -4.1 °C -9.9 °C 34428.8 hPa East 18.2 km/h 28.5 km/h 52 % 0 mm 796 W/m2
16:15 -4.1 °C -9.9 °C 34418.7 hPa East 5.1 km/h 25.9 km/h 52 % 0 mm 715 W/m2
16:20 -3.9 °C -9.3 °C 34418.7 hPa East 18.2 km/h 25.9 km/h 55 % 0 mm 793 W/m2
16:25 -3.9 °C -9.9 °C 34418.7 hPa East 7.7 km/h 28.5 km/h 51 % 0 mm 744 W/m2
16:30 -4.1 °C -10.4 °C 34418.7 hPa Calm   28.5 km/h 49 % 0 mm 659 W/m2
16:35 -4 °C -10 °C 34418.7 hPa SSE 7.7 km/h 25.9 km/h 51 % 0 mm 712 W/m2
16:40 -3.8 °C -9.9 °C 34418.7 hPa ESE 10.3 km/h 31.1 km/h 51 % 0 mm 640 W/m2
16:45 -4 °C -10 °C 34405.1 hPa East 15.6 km/h 31.1 km/h 51 % 0 mm 577 W/m2
16:50 -4.1 °C -10 °C 34405.1 hPa ESE 23.3 km/h 33.6 km/h 52 % 0 mm 499 W/m2
16:55 -4.2 °C -10.4 °C 34405.1 hPa East 18.2 km/h 33.6 km/h 50 % 0 mm 415 W/m2
17:00 -4.3 °C -10.2 °C 34405.1 hPa SE 12.9 km/h 23.3 km/h 52 % 0 mm 394 W/m2
17:05 -4.4 °C -9.9 °C 34418.7 hPa ENE 5.1 km/h 23.3 km/h 54 % 0 mm 353 W/m2
17:10 -4.5 °C -9.8 °C 34418.7 hPa ENE 2.6 km/h 20.8 km/h 55 % 0 mm 350 W/m2
17:15 -4.5 °C -10.2 °C 34418.7 hPa East 5.1 km/h 25.9 km/h 53 % 0 mm 427 W/m2
17:20 -4.3 °C -9.9 °C 34418.7 hPa East 10.3 km/h 25.9 km/h 53 % 0 mm 714 W/m2
17:25 -3.7 °C -9.4 °C 34418.7 hPa ENE 7.7 km/h 25.9 km/h 53 % 0 mm 853 W/m2
17:30 -3.6 °C -10.2 °C 34418.7 hPa ESE 2.6 km/h 23.3 km/h 48 % 0 mm 689 W/m2
17:35 -3.7 °C -9.8 °C 34405.1 hPa ESE 15.6 km/h 23.3 km/h 50 % 0 mm 571 W/m2
17:40 -3.8 °C -9.7 °C 34418.7 hPa NNE 5.1 km/h 28.5 km/h 52 % 0 mm 448 W/m2
17:45 -4 °C -9.7 °C 34418.7 hPa NE 20.8 km/h 36.2 km/h 53 % 0 mm 431 W/m2
17:50 -4.1 °C -10.2 °C 34418.7 hPa East 5.1 km/h 36.2 km/h 50 % 0 mm 499 W/m2
17:55 -4.1 °C -9.9 °C 34418.7 hPa NE 5.1 km/h 25.9 km/h 52 % 0 mm 526 W/m2
18:00 -3.9 °C -9.6 °C 34405.1 hPa Calm   25.9 km/h 53 % 0 mm 613 W/m2
18:05 -3.8 °C -9.8 °C 34405.1 hPa East 5.1 km/h 23.3 km/h 51 % 0 mm 504 W/m2
18:10 -3.9 °C -9.7 °C 34405.1 hPa ENE 10.3 km/h 23.3 km/h 52 % 0 mm 383 W/m2
18:15 -4.1 °C -10.1 °C 34405.1 hPa ENE 12.9 km/h 23.3 km/h 51 % 0 mm 468 W/m2
18:20 -3.9 °C -10.1 °C 34405.1 hPa ESE 12.9 km/h 23.3 km/h 50 % 0 mm 441 W/m2
18:25 -4.1 °C -10.1 °C 34405.1 hPa ENE 7.7 km/h 23.3 km/h 51 % 0 mm 320 W/m2
18:30 -4.2 °C -10.2 °C 34405.1 hPa East 18.2 km/h 23.3 km/h 51 % 0 mm 390 W/m2
18:35 -4.2 °C -9.8 °C 34405.1 hPa East 5.1 km/h 23.3 km/h 53 % 0 mm 422 W/m2
18:40 -4.1 °C -10.2 °C 34405.1 hPa Calm   20.8 km/h 51 % 0 mm 255 W/m2
18:45 -4.3 °C -9.9 °C 34405.1 hPa ESE 7.7 km/h 23.3 km/h 53 % 0 mm 341 W/m2
18:50 -4.4 °C -10.1 °C 34395 hPa ENE 7.7 km/h 23.3 km/h 53 % 0 mm 199 W/m2
18:55 -4.5 °C -9.9 °C 34395 hPa ENE 5.1 km/h 25.9 km/h 54 % 0 mm 211 W/m2
19:00 -4.3 °C -9.8 °C 34395 hPa North 7.7 km/h 25.9 km/h 54 % 0 mm 403 W/m2
19:05 -4.1 °C -9.9 °C 34395 hPa NE 20.8 km/h 25.9 km/h 52 % 0 mm 345 W/m2
19:10 -4.1 °C -9.5 °C 34384.8 hPa ENE 12.9 km/h 25.9 km/h 55 % 0 mm 248 W/m2
19:15 -4.3 °C -9.5 °C 34384.8 hPa East 10.3 km/h 36.2 km/h 56 % 0 mm 271 W/m2
19:20 -4.3 °C -9.8 °C 34384.8 hPa ENE 12.9 km/h 36.2 km/h 54 % 0 mm 339 W/m2
19:25 -4.3 °C -9.8 °C 34384.8 hPa ENE 12.9 km/h 33.6 km/h 54 % 0 mm 267 W/m2
19:30 -4.4 °C -9.9 °C 34371.3 hPa SE 18.2 km/h 33.6 km/h 54 % 0 mm 248 W/m2
19:35 -4.4 °C -9.8 °C 34371.3 hPa East 7.7 km/h 28.5 km/h 55 % 0 mm 237 W/m2
19:40 -4.4 °C -9.7 °C 34371.3 hPa NE 15.6 km/h 28.5 km/h 55 % 0 mm 272 W/m2
19:45 -4.3 °C -10.2 °C 34371.3 hPa ENE 12.9 km/h 31.1 km/h 52 % 0 mm 271 W/m2
19:50 -4.4 °C -10.2 °C 34371.3 hPa East 18.2 km/h 31.1 km/h 52 % 0 mm 163 W/m2
19:55 -4.6 °C -10.2 °C 34371.3 hPa ESE 10.3 km/h 31.1 km/h 53 % 0 mm 116 W/m2
20:00 -4.7 °C -10.1 °C 34361.1 hPa ENE 33.6 km/h 33.6 km/h 55 % 0 mm 123 W/m2
20:05 -4.8 °C -10.2 °C 34361.1 hPa SE 12.9 km/h 33.6 km/h 54 % 0 mm 107 W/m2
20:10 -4.8 °C -10.4 °C 34371.3 hPa SE 20.8 km/h 33.6 km/h 53 % 0 mm 77 W/m2
20:15 -4.9 °C -10.5 °C 34371.3 hPa East 15.6 km/h 33.6 km/h 53 % 0 mm 104 W/m2
20:20 -4.9 °C -10.3 °C 34371.3 hPa ESE 5.1 km/h 28.5 km/h 54 % 0 mm 69 W/m2
20:25 -4.9 °C -10.4 °C 34371.3 hPa ENE 10.3 km/h 28.5 km/h 54 % 0 mm 65 W/m2
20:30 -4.9 °C -10.4 °C 34371.3 hPa ENE 12.9 km/h 28.5 km/h 54 % 0 mm 60 W/m2
20:35 -4.9 °C -10.4 °C 34371.3 hPa East 2.6 km/h 23.3 km/h 54 % 0 mm 76 W/m2
20:40 -4.9 °C -10.2 °C 34361.1 hPa East 7.7 km/h 20.8 km/h 55 % 0 mm 67 W/m2
20:45 -4.9 °C -10.3 °C 34361.1 hPa East 5.1 km/h 28.5 km/h 55 % 0 mm 67 W/m2
20:50 -5 °C -10.3 °C 34361.1 hPa ESE 5.1 km/h 28.5 km/h 55 % 0 mm 58 W/m2
20:55 -5.1 °C -10.3 °C 34371.3 hPa ENE 5.1 km/h 20.8 km/h 55 % 0 mm 53 W/m2
21:00 -5.1 °C -10.3 °C 34371.3 hPa East 5.1 km/h 20.8 km/h 55 % 0 mm 49 W/m2
21:05 -5.1 °C -10.3 °C 34371.3 hPa ENE 7.7 km/h 18.2 km/h 56 % 0 mm 54 W/m2
21:10 -5.2 °C -10.3 °C 34371.3 hPa ESE 7.7 km/h 18.2 km/h 56 % 0 mm 60 W/m2
21:15 -5.2 °C -10.1 °C 34371.3 hPa Calm   18.2 km/h 58 % 0 mm 62 W/m2
21:20 -5.3 °C -10.1 °C 34371.3 hPa SE 7.7 km/h 18.2 km/h 58 % 0 mm 53 W/m2
21:25 -5.3 °C -10.1 °C 34371.3 hPa SE 10.3 km/h 18.2 km/h 58 % 0 mm 44 W/m2
21:30 -5.4 °C -10.1 °C 34371.3 hPa East 5.1 km/h 18.2 km/h 59 % 0 mm 39 W/m2
21:40 -5.6 °C -10.1 °C 34384.8 hPa Calm   18.2 km/h 60 % 0 mm 28 W/m2
21:45 -5.7 °C -10.2 °C 34384.8 hPa ESE 2.6 km/h 18.2 km/h 60 % 0 mm 23 W/m2
21:50 -5.8 °C -10.2 °C 34384.8 hPa ESE 5.1 km/h 12.9 km/h 61 % 0 mm 18 W/m2
21:55 -5.9 °C -10.1 °C 34384.8 hPa ESE 5.1 km/h 12.9 km/h 62 % 0 mm 12 W/m2
22:00 -6.1 °C -10 °C 34384.8 hPa Calm   10.3 km/h 64 % 0 mm 11 W/m2
22:10 -6.3 °C -10.1 °C 34384.8 hPa SE 2.6 km/h 10.3 km/h 65 % 0 mm 0 W/m2
22:15 -6.4 °C -10.2 °C 34384.8 hPa SE 2.6 km/h 10.3 km/h 65 % 0 mm 0 W/m2
22:20 -6.4 °C -10.2 °C 34384.8 hPa ESE 5.1 km/h 18.2 km/h 65 % 0 mm 0 W/m2
22:25 -6.4 °C -10.3 °C 34395 hPa ESE 5.1 km/h 18.2 km/h 64 % 0 mm 0 W/m2
22:30 -6.6 °C -10.3 °C 34384.8 hPa East 12.9 km/h 18.2 km/h 65 % 0 mm 0 W/m2
22:35 -6.6 °C -10.3 °C 34384.8 hPa ESE 7.7 km/h 18.2 km/h 66 % 0 mm 0 W/m2
22:40 -6.6 °C -10.3 °C 34384.8 hPa ESE 7.7 km/h 18.2 km/h 66 % 0 mm 0 W/m2
22:45 -6.7 °C -10.3 °C 34395 hPa East 5.1 km/h 15.6 km/h 66 % 0 mm 0 W/m2
22:50 -6.8 °C -10.4 °C 34395 hPa East 2.6 km/h 15.6 km/h 66 % 0 mm 0 W/m2
23:00 -6.9 °C -10.3 °C 34395 hPa East 2.6 km/h 7.7 km/h 68 % 0 mm 0 W/m2
23:05 -7.1 °C -10.4 °C 34395 hPa Calm   12.9 km/h 69 % 0 mm 0 W/m2
23:10 -7.2 °C -10.3 °C 34395 hPa Calm   12.9 km/h 70 % 0 mm 0 W/m2
23:15 -7.3 °C -10.2 °C 34395 hPa Calm   5.1 km/h 72 % 0 mm 0 W/m2
23:20 -7.3 °C -10.2 °C 34384.8 hPa East 7.7 km/h 12.9 km/h 72 % 0 mm 0 W/m2
23:25 -7.3 °C -10.3 °C 34384.8 hPa ESE 5.1 km/h 12.9 km/h 71 % 0 mm 0 W/m2
23:30 -7.3 °C -10.2 °C 34384.8 hPa ESE 5.1 km/h 12.9 km/h 72 % 0 mm 0 W/m2
23:35 -7.3 °C -10.2 °C 34384.8 hPa ESE 2.6 km/h 15.6 km/h 72 % 0 mm 0 W/m2
23:40 -7.3 °C -10.2 °C 34371.3 hPa East 5.1 km/h 15.6 km/h 72 % 0 mm 0 W/m2
23:45 -7.3 °C -10.1 °C 34361.1 hPa East 12.9 km/h 18.2 km/h 72 % 0 mm 0 W/m2
23:50 -7.3 °C -10.1 °C 34361.1 hPa ENE 5.1 km/h 18.2 km/h 73 % 0 mm 0 W/m2
23:55 -7.3 °C -10.1 °C 34361.1 hPa East 5.1 km/h 15.6 km/h 73 % 0 mm 0 W/m2
Avec l'autorisation de Weather Underground - 1.75 mb